Regional Weather Roundup
Issued by NWS

Home | Current Version | Previous Version | Text Only | Print | Product List | Glossary On
Versions: 1 2 3 4 5 6 7 8 9 10 11 12 13 14 15 16 17 18 19 20 21 22 23 24 25 26 27
000
ASUS45 KPSR 291910
RWRAZ

ARIZONA HOURLY REGIONAL WEATHER ROUNDUP
NATIONAL WEATHER SERVICE PHOENIX AZ
1200 PM MST SAT APR 29 2017

NOTE: FAIR INDICATES FEW OR NO CLOUDS BELOW 12,000 FEET WITH NO
SIGNIFICANT WEATHER AND/OR OBSTRUCTIONS TO VISIBILITY.

AZZ001>003-036-292000-
NORTHWEST ARIZONA

CITY           SKY/WX    TMP DP  RH WIND       PRES   REMARKS
BULLHEAD CITY  SUNNY     75  23  14 N25G35    30.02F
KINGMAN        SUNNY     64  32  30 N14G30    30.08S
$$

AZZ004>008-015-016-018-292000-
NORTH CENTRAL ARIZONA

CITY           SKY/WX    TMP DP  RH WIND       PRES   REMARKS
GRAND CANYON   MOSUNNY   46  17  31 N12G21    30.05S
WILLIAMS       MOSUNNY   46  18  31 N14G33    30.05F
PRESCOTT       MOSUNNY   57  17  21 N17G32    30.04F
FLAGSTAFF      SUNNY     47   9  21 N10G22    30.03S
PAYSON         PTSUNNY   55  18  22 W9G20     30.03R
PAGE           PTSUNNY   61  18  18 NE21G36   30.00F
$$

AZZ009>014-017-292000-
NORTHEAST ARIZONA

CITY           SKY/WX    TMP DP  RH WIND       PRES   REMARKS
WINSLOW        PTSUNNY   57  19  22 NW17G28   29.99F
SAINT JOHNS    MOSUNNY   50  24  36 NW24G33   29.95F
WINDOW ROCK    PTSUNNY   43  24  47 N17G26    29.95F
SHOW LOW       PTSUNNY   45  16  31 NW14G21   30.00S
$$

AZZ540-542>544-546-548-292000-
GREATER PHOENIX AREA

CITY           SKY/WX    TMP DP  RH WIND       PRES   REMARKS
PHOENIX        MOSUNNY   73  18  12 NW6       29.93F
BUCKEYE        SUNNY     75  16  10 NW13G24   29.96F
GLENDALE       MOSUNNY   73  16  11 N6        29.97F
LUKE AFB       SUNNY     73  18  12 SW7G20    29.94F
DEER VALLEY    SUNNY     72  19  13 SW14G20   29.93F
SCOTTSDALE     SUNNY     73  18  12 W10       29.95F
MESA-FALCON    MOSUNNY  N/A N/A N/A W21       29.94F
MESA-GATEWAY   MOSUNNY   72  18  13 NW17      29.96S
CHANDLER       SUNNY     72  16  12 W12G18    29.95S
$$

AZZ539-553-292000-
SOUTHWEST MARICOPA COUNTY AND PINAL COUNTY

CITY           SKY/WX    TMP DP  RH WIND       PRES   REMARKS
CASA GRANDE    SUNNY     72  18  13 NW14G22   29.96F
GILA BEND      SUNNY     75  14  10 NW10      29.95F
$$

AZZ503-504-507>509-292000-
SOUTHEAST ARIZONA

CITY           SKY/WX    TMP DP  RH WIND       PRES   REMARKS
TUCSON         SUNNY     69  11  10 W15       29.98S
DAVIS-MONTHAN  SUNNY     67  10  11 NW14      29.96F
RYAN FIELD     SUNNY     68  12  11 NW15G21   29.98F
NOGALES        SUNNY     67   6   9 NW12G21   29.97F
SIERRA VISTA   SUNNY     63   1   8 N13G20    29.99S
DOUGLAS        SUNNY     66   2   8 W18G25    29.95F
SAFFORD        SUNNY     67  13  12 W22G30    29.90F
$$

AZZ532-292000-
SOUTHWEST ARIZONA

CITY           SKY/WX    TMP DP  RH WIND       PRES   REMARKS
YUMA           SUNNY     80  21  11 N20G28    30.00S
$$

CAZ041-043-047-048-061-525>527-560>570-292000-
SOUTHERN CALIFORNIA

CITY           SKY/WX    TMP DP  RH WIND       PRES   REMARKS
DOWNTOWN L.A.  SUNNY     82  20  10 W6        30.00S
L.A. AIRPORT   SUNNY     79  17  10 W12       30.01S
SAN DIEGO      MOSUNNY   79  24  13 NW12      30.00R
BURBANK        SUNNY     79   8   6 N21G30    30.01F
ONTARIO        SUNNY     78  12   8 NE29G38   30.01F
RIVERSIDE      SUNNY     78  19  11 N15G31    30.01F
PALM SPRINGS   SUNNY     80  15   8 N9G25     30.07F
EL CENTRO NAS  SUNNY     80  17   9 NE14G23   30.03F
IMPERIAL       SUNNY     80  24  12 N10G22    30.00F
BLYTHE         MOSUNNY   78  20  11 N18G29    30.02F
NEEDLES        SUNNY     78  21  12 NE25G39   30.03F
$$

NVZ020-UTZ003-292000-
SOUTHERN NEVADA-UTAH

CITY           SKY/WX    TMP DP  RH WIND       PRES   REMARKS
LAS VEGAS      MOSUNNY   70  15  12 N12G18    30.10F
SALT LAKE CITY MOSUNNY   53  25  33 NW12      30.19F
$$

NMZ009-TXZ055-292000-
NEW MEXICO-WEST TEXAS

CITY           SKY/WX    TMP DP  RH WIND       PRES   REMARKS
ALBUQUERQUE    CLOUDY    40  36  86 CALM      29.95F
EL PASO        PTSUNNY   58  34  40 SW17G23   29.85F THUNDER
$$


........................KEY........................
SKY/WX - SKY CONDITION/WEATHER
TMP    - TEMPERATURE IN FAHRENHEIT
DP     - DEW POINT IN FAHRENHEIT
RH     - RELATIVE HUMIDITY IN PERCENT
WIND   - DIRECTION AND SPEED IN MILES PER HOUR (MPH)
VRB    - VARIABLE WIND DIRECTION
PRES   - MEAN SEA LEVEL PRESSURE IN INCHES OF MERCURY
         F - FALLING PRESSURE   R - RISING PRESSURE
         S - STEADY PRESSURE
VSB    - VISIBILITY IN MILES
HX     - HEAT INDEX IN FAHRENHEIT
WCI    - WIND CHILL INDEX IN FAHRENHEIT
TC     - TEMPERATURE IN CELSIUS WHICH IS ALSO KNOWN AS
         TEMPERATURE IN CENTIGRADE
AFB    - AIR FORCE BASE
         LUKE AFB IS LUKE AIR FORCE BASE
         DAVIS-MONTHAN IS DAVIS-MONTHAN AIR FORCE BASE
NAS    - NAVAL AIR STATION
         EL CENTRO NAS IS EL CENTRO NAVAL AIR STATION
N/A    - NOT AVAILABLE





USA.gov is the U.S. government's official web portal to all federal, state and local government web resources and services.